STARLINK-2408, 47823

Orbit data source: Space-Track

STARLINK-2408, 47823 is a payload satellite owned by SpaceX/Seattle (US) in LEO that was launched on Thu, 11 Mar 2021 UTC via an FALCON 9 launch vehicle from the Air Force Eastern Test Range (AFETR). Payload-class satellites include a variety of spacecraft equipped with specific instruments for various scientific and technological missions. These include communications satellites like Starlink; space stations such as the ISS; scientific satellites like the Hubble; Earth observation satellites from companies like Planet Labs, Umbra, and HawkEye 360; GPS; miniature CubeSats for education and research; and military/defense satellites.

Loading next visibility...
Identifier
47823, 2021-018AN
Orbit
LEO
Country
Flag of USUS
Related business
Manufacturer
SpaceX/Seattle
Mission
Operational Commercial Communications
Bus & Motor
STARLINK, Unknown motor
Mass
260 kg wet, ~248 kg dry
Launch date (UTC)
2021-03-11 (5 years ago)
Launch vehicle
FALCON 9
Launch site
Air Force Eastern Test Range (AFETR)
Object type
Payload
Rocket body
Debris
Shape & HBR
Box + 1 Pan, 10.1 m
Radar Cross Section
13.562 m², Large (>1 m²)

Expand to show TLE details & history
Last TLE update: 2 days ago

TLE from 2 days ago
0 STARLINK-2408
1 47823U 21018AN  26171.19562336  .00001312  00000-0  54039-4 0  9990
2 47823  53.1602 141.1828 0001214  77.7449 282.3689 15.31703691292203
Epoch: 2026-06-20T04:41Z
TLE epoch observation values (Epoch: 2026-06-20T04:41:41.858Z)
Latitude
0.00004°
Longitude
162.3447°
Altitude
471.451 km
Speed
7.632 km/s
True Right ascension
09h 24m 43s
True Declination
0° 00' 00"
Sunlit
Object was in daylight at epoch
Visualization orbit readout
Latitude
Unknown
Longitude
Unknown
Altitude
Unknown
Speed
Unknown
Apparent Right ascension
Unknown
Apparent Declination
Unknown
Sunlit
N/A
Visualization observer readout
Local Sidereal Time
21:43:18
Azimuth
Unknown
Elevation
Unknown
Doppler factor
Unknown
Orbital elements
Apogee altitude
471.817 km
Perigee altitude
470.154 km
Semi-major axis
6,849.123 km
Eccentricity
0.00012
Inclination
53.1602°
RAAN
141.1828°
Arg. of periapsis
77.7449°
True anomaly
282.35531°
Mean anomaly
282.3689°
Eccentric anomaly
282.36211°
Mean motion
3.82905 °/min
Orbital period
94.02 mins
BSTAR
0.000054039
Loading maneuver chart data...
Computing Atmospheric mass density...

Documentation

Showing up to 5 results
|